Time,TemperatureF,DewpointF,PressureIn,WindDirection,WindDirectionDegrees,WindSpeedMPH,WindSpeedGustMPH,Humidity,HourlyPrecipIn,Conditions,Clouds,dailyrainin,SoftwareType,DateUTC
2013-01-18 00:00:00,2.0,-99.9,-100.00,North,-999,-999.0,-999.0,-999,-99.99,,,0.00,,2013-01-18 07:00:00,
2013-01-18 00:53:00,2.0,-99.9,-100.00,North,-999,-999.0,-999.0,-999,-99.99,,,0.00,,2013-01-18 07:53:00,
2013-01-18 01:00:00,1.0,-99.9,-100.00,North,-999,-999.0,-999.0,-999,-99.99,,,0.00,,2013-01-18 08:00:00,
2013-01-18 01:53:00,1.0,-99.9,-100.00,North,-999,-999.0,-999.0,-999,-99.99,,,0.00,,2013-01-18 08:53:00,
2013-01-18 02:00:00,1.0,-99.9,-100.00,North,2,0.0,0.0,-999,-99.99,,,0.00,,2013-01-18 09:00:00,
2013-01-18 02:53:00,1.0,-99.9,-100.00,North,2,0.0,0.0,-999,-99.99,,,0.00,,2013-01-18 09:53:00,
2013-01-18 03:00:00,1.0,-99.9,-100.00,North,2,0.0,0.0,-999,-99.99,,,0.00,,2013-01-18 10:00:00,
2013-01-18 03:53:00,1.0,-99.9,-100.00,North,2,0.0,0.0,-999,-99.99,,,0.00,,2013-01-18 10:53:00,
2013-01-18 04:00:00,-1.0,-99.9,-100.00,North,2,0.0,0.0,-999,-99.99,,,0.00,,2013-01-18 11:00:00,
2013-01-18 04:53:00,-1.0,-99.9,-100.00,North,2,0.0,0.0,-999,-99.99,,,0.00,,2013-01-18 11:53:00,
2013-01-18 05:00:00,-3.0,-99.9,-100.00,North,1,0.0,0.0,-999,-99.99,,,0.00,,2013-01-18 12:00:00,
2013-01-18 05:53:00,-3.0,-99.9,-100.00,North,1,0.0,0.0,-999,-99.99,,,0.00,,2013-01-18 12:53:00,
2013-01-18 06:00:00,-3.0,-99.9,-100.00,North,1,0.0,0.0,-999,-99.99,,,0.00,,2013-01-18 13:00:00,
2013-01-18 06:53:00,-3.0,-99.9,-100.00,North,1,0.0,0.0,-999,-99.99,,,0.00,,2013-01-18 13:53:00,
2013-01-18 07:00:00,-2.0,-99.9,-100.00,North,-999,-999.0,-999.0,-999,-99.99,,,0.00,,2013-01-18 14:00:00,
2013-01-18 07:54:00,-2.0,-99.9,-100.00,North,-999,-999.0,-999.0,-999,-99.99,,,0.00,,2013-01-18 14:54:00,
2013-01-18 08:00:00,-4.0,-99.9,-100.00,North,2,0.0,0.0,-999,-99.99,,,0.00,,2013-01-18 15:00:00,
2013-01-18 08:54:00,-4.0,-99.9,-100.00,North,2,0.0,0.0,-999,-99.99,,,0.00,,2013-01-18 15:54:00,
2013-01-18 09:00:00,11.0,-99.9,-100.00,North,1,0.0,0.0,-999,-99.99,,,0.00,,2013-01-18 16:00:00,
2013-01-18 09:53:00,11.0,-99.9,-100.00,North,1,0.0,0.0,-999,-99.99,,,0.00,,2013-01-18 16:53:00,
2013-01-18 10:00:00,24.0,-99.9,-100.00,North,-999,-999.0,-999.0,-999,-99.99,,,0.00,,2013-01-18 17:00:00,
2013-01-18 10:54:00,24.0,-99.9,-100.00,North,-999,-999.0,-999.0,-999,-99.99,,,0.00,,2013-01-18 17:54:00,
2013-01-18 11:00:00,28.0,-99.9,-100.00,North,-999,-999.0,-999.0,-999,-99.99,,,0.00,,2013-01-18 18:00:00,
2013-01-18 11:54:00,28.0,-99.9,-100.00,North,-999,-999.0,-999.0,-999,-99.99,,,0.00,,2013-01-18 18:54:00,
2013-01-18 12:00:00,35.0,-99.9,-100.00,North,0,1.0,4.0,-999,-99.99,,,0.00,,2013-01-18 19:00:00,
2013-01-18 12:53:00,35.0,-99.9,-100.00,North,0,1.0,4.0,-999,-99.99,,,0.00,,2013-01-18 19:53:00,
2013-01-18 13:00:00,37.0,-99.9,-100.00,North,0,2.0,5.0,-999,-99.99,,,0.00,,2013-01-18 20:00:00,
2013-01-18 13:53:00,37.0,-99.9,-100.00,North,0,2.0,5.0,-999,-99.99,,,0.00,,2013-01-18 20:53:00,
2013-01-18 14:00:00,40.0,-99.9,-100.00,North,0,3.0,8.0,-999,-99.99,,,-99.99,,2013-01-18 21:00:00,
2013-01-18 14:53:00,40.0,-99.9,-100.00,North,0,3.0,8.0,-999,-99.99,,,-99.99,,2013-01-18 21:53:00,
2013-01-18 15:00:00,39.0,-99.9,-100.00,North,0,1.0,10.0,-999,-99.99,,,0.00,,2013-01-18 22:00:00,
2013-01-18 15:53:00,39.0,-99.9,-100.00,North,0,1.0,10.0,-999,-99.99,,,0.00,,2013-01-18 22:53:00,
2013-01-18 17:00:00,22.0,-99.9,-100.00,North,-999,-999.0,-999.0,-999,-99.99,,,0.00,,2013-01-19 00:00:00,
2013-01-18 17:53:00,22.0,-99.9,-100.00,North,-999,-999.0,-999.0,-999,-99.99,,,0.00,,2013-01-19 00:53:00,
2013-01-18 18:00:00,15.0,-99.9,-100.00,North,-999,-999.0,-999.0,-999,-99.99,,,0.00,,2013-01-19 01:00:00,
2013-01-18 18:53:00,15.0,-99.9,-100.00,North,-999,-999.0,-999.0,-999,-99.99,,,0.00,,2013-01-19 01:53:00,
2013-01-18 19:00:00,9.0,-99.9,-100.00,North,-999,-999.0,-999.0,-999,-99.99,,,0.00,,2013-01-19 02:00:00,
2013-01-18 19:53:00,9.0,-99.9,-100.00,North,-999,-999.0,-999.0,-999,-99.99,,,0.00,,2013-01-19 02:53:00,
2013-01-18 20:00:00,12.0,-99.9,-100.00,North,-999,-999.0,-999.0,-999,-99.99,,,0.00,,2013-01-19 03:00:00,
2013-01-18 20:53:00,12.0,-99.9,-100.00,North,-999,-999.0,-999.0,-999,-99.99,,,0.00,,2013-01-19 03:53:00,
2013-01-18 21:00:00,6.0,-99.9,-100.00,North,-999,-999.0,-999.0,-999,-99.99,,,0.00,,2013-01-19 04:00:00,
2013-01-18 21:53:00,6.0,-99.9,-100.00,North,-999,-999.0,-999.0,-999,-99.99,,,0.00,,2013-01-19 04:53:00,
2013-01-18 22:00:00,6.0,-99.9,-100.00,North,0,0.0,0.0,-999,-99.99,,,0.00,,2013-01-19 05:00:00,
2013-01-18 22:53:00,6.0,-99.9,-100.00,North,0,0.0,0.0,-999,-99.99,,,0.00,,2013-01-19 05:53:00,
2013-01-18 23:00:00,9.0,-99.9,-100.00,North,-999,-999.0,-999.0,-999,-99.99,,,0.00,,2013-01-19 06:00:00,
2013-01-18 23:53:00,9.0,-99.9,-100.00,North,-999,-999.0,-999.0,-999,-99.99,,,0.00,,2013-01-19 06:53:00,